Showing default

GAOFEN 9 03, 45794

Orbit data source: Space-Track

GAOFEN 9 03, 45794 is a payload satellite owned by GGKGJ (CN) in SSO that was launched on Wed, 17 Jun 2020 UTC via a CHANG ZHENG 2D launch vehicle from the Jiuquan Satellite Launch Center, China (JSC). Payloads include a variety of satellites, spacecraft, and rockets equipped with specific instruments for various scientific and technological missions. These include communications satellites like Starlink; space stations such as the ISS; scientific satellites like the Hubble; Earth observation satellites from companies like Planet Labs, Umbra, and HawkEye 360; GPS; miniature CubeSats for education and research; and military/defense satellites.

Loading next visibility...
GAOFEN 9 03 details
Identifier
45794, 2020-039A
Orbit
SSO
Last TLE update9 hours ago
Origin
Flag of CNGGKGJ (CN / PRC)
ManufacturerDFH
MissionOperational Defense Imaging
Bus & MotorCAST-3000, AOCS
Mass~1,700 kg wet, ~1,500 kg dry
Launch date (UTC)
2020-06-17 (5 years ago)
Launch vehicle
CHANG ZHENG 2D
Launch site
Jiuquan Satellite Launch Center, China (JSC)
Object type
Payload
Rocket body
Debris
Shape & HBRBox + 2 Pan, Unknown HBR
Radar Cross Section4.991 m², Large (>1 m²)

Expand to show TLE details & history

TLE from 9 hours ago
0 GAOFEN 9 03
1 45794U 20039A   24361.50873398  .00016543  00000-0  69522-3 0  9998
2 45794  97.4769 121.4709 0015398 187.8982 172.2015 15.23394189251715
Epoch: 2024-12-26T12:12Z
Definitive object data (Epoch: 2024-12-26T12:12:34.615Z)
Latitude-0.00002°
Longitude-157.16044°
Altitude509.193 km
Speed7.604 km/s
True Right ascension08h 05m 53s
True Declination0° 00' 00"
Sunlit
Object was in full shadow at TLE epoch
Visualization TLE readout
Latitude37.05836°
Longitude28.84895°
Altitude493.132 km
Speed7.626 km/s
Apparent Right ascension23h 08m 46s
Apparent Declination3° 29' 00"
Sunlit
Object is in daylight
Visualization observer readout
Local Sidereal Time20:05:51
Azimuth119.265° SE
Elevation34.988°
Doppler factor1
Orbital elements
Apogee altitude503.155 km
Perigee altitude481.996 km
Semi-major axis6,870.713 km
Eccentricity0.0015398
Inclination97.4769°
RAAN121.4709°
Arg. of periapsis187.8982°
True anomaly172.2254°
Mean anomaly172.2015°
Eccentric anomaly172.21345°
Mean motion3.81101 °/min
BSTAR0.00069522
Orbital period94.46 mins
Loading maneuver chart data...
Loading historical data...
Loading historical data...
Loading historical data...
Loading historical data...
Loading historical data...
Loading historical data...
Loading historical data...

GAOFEN 9 03 Visibility forecast

Observer location: undefined°, undefined

Span
Click to sort rows by Start time (UTC) header in descending order
Start Az.
Max El. time (UTC)
Max El. Az.
Max El.
End time (UTC)
End Az.
4 mins2024-12-27 08:50:59.543Z220.105° SW2024-12-27 08:51:59.543Z245.749° WSW26.669°2024-12-27 08:54:59.543Z319.827° NNW
4 mins2024-12-27 20:19:59.543Z65.174° ENE2024-12-27 20:20:59.543Z86.442° E18.651°2024-12-27 20:23:59.543Z143.496° SSE
|